����������;��������(kWh)
2015-08-03 00:00;92,15
2015-08-03 00:15;77,45
2015-08-03 00:30;77,9
2015-08-03 00:45;78
2015-08-03 01:00;85
2015-08-03 01:15;88,25
2015-08-03 01:30;77,8
2015-08-03 01:45;76,25
2015-08-03 02:00;75,6
2015-08-03 02:15;75,6
2015-08-03 02:30;79,05
2015-08-03 02:45;78,25
2015-08-03 03:00;76,4
2015-08-03 03:15;83,2
2015-08-03 03:30;78
2015-08-03 03:45;75,6
2015-08-03 04:00;74,25
2015-08-03 04:15;74,35
2015-08-03 04:30;80,65
2015-08-03 04:45;79
2015-08-03 05:00;73,2
2015-08-03 05:15;76,4
2015-08-03 05:30;76,95
2015-08-03 05:45;78,6
2015-08-03 06:00;75,45
2015-08-03 06:15;68,75
2015-08-03 06:30;68,3
2015-08-03 06:45;70,75
2015-08-03 07:00;75,65
2015-08-03 07:15;77,9
2015-08-03 07:30;72,8
2015-08-03 07:45;102,5
2015-08-03 08:00;100,9
2015-08-03 08:15;103,15
2015-08-03 08:30;97,45
2015-08-03 08:45;98,9
2015-08-03 09:00;97,9
2015-08-03 09:15;104,05
2015-08-03 09:30;109,35
2015-08-03 09:45;101,5
2015-08-03 10:00;103,6
2015-08-03 10:15;108,4
2015-08-03 10:30;116,75
2015-08-03 10:45;116,65
2015-08-03 11:00;120,5
2015-08-03 11:15;121,7
2015-08-03 11:30;111,3
2015-08-03 11:45;110,2
2015-08-03 12:00;105,6
2015-08-03 12:15;97,45
2015-08-03 12:30;96,7
2015-08-03 12:45;95
2015-08-03 13:00;93,85
2015-08-03 13:15;98,45
2015-08-03 13:30;95,25
2015-08-03 13:45;92,15
2015-08-03 14:00;94,2
2015-08-03 14:15;93,2
2015-08-03 14:30;92,95
2015-08-03 14:45;91,65
2015-08-03 15:00;92,1
2015-08-03 15:15;92,6
2015-08-03 15:30;95,75
2015-08-03 15:45;88,85
2015-08-03 16:00;82,45
2015-08-03 16:15;76,8
2015-08-03 16:30;75,8
2015-08-03 16:45;76,05
2015-08-03 17:00;76,65
2015-08-03 17:15;78,5
2015-08-03 17:30;75,4
2015-08-03 17:45;74,25
2015-08-03 18:00;73,6
2015-08-03 18:15;74,55
2015-08-03 18:30;72,15
2015-08-03 18:45;73
2015-08-03 19:00;71,25
2015-08-03 19:15;70,1
2015-08-03 19:30;66,9
2015-08-03 19:45;68,55
2015-08-03 20:00;70,6
2015-08-03 20:15;70,05
2015-08-03 20:30;69,35
2015-08-03 20:45;71,2
2015-08-03 21:00;73,05
2015-08-03 21:15;72,2
2015-08-03 21:30;73,25
2015-08-03 21:45;73,85
2015-08-03 22:00;73,6
2015-08-03 22:15;70,45
2015-08-03 22:30;71,15
2015-08-03 22:45;71,7
2015-08-03 23:00;72,9
2015-08-03 23:15;70,6
2015-08-03 23:30;68,4
2015-08-03 23:45;69,15
2015-08-04 00:00;70,05
2015-08-04 00:15;70,05
2015-08-04 00:30;70,85
2015-08-04 00:45;71
2015-08-04 01:00;66,95
2015-08-04 01:15;68,85
2015-08-04 01:30;69,25
2015-08-04 01:45;68,25
2015-08-04 02:00;68,15
2015-08-04 02:15;67,65
2015-08-04 02:30;65,25
2015-08-04 02:45;65,9
2015-08-04 03:00;66,2
2015-08-04 03:15;64,95
2015-08-04 03:30;65,45
2015-08-04 03:45;64,45
2015-08-04 04:00;67,1
2015-08-04 04:15;66,2
2015-08-04 04:30;65,25
2015-08-04 04:45;63,85
2015-08-04 05:00;65,55
2015-08-04 05:15;65,5
2015-08-04 05:30;65,75
2015-08-04 05:45;64,35
2015-08-04 06:00;63,35
2015-08-04 06:15;62,7
2015-08-04 06:30;61,85
2015-08-04 06:45;57,6
2015-08-04 07:00;55,5
2015-08-04 07:15;58,35
2015-08-04 07:30;58,4
2015-08-04 07:45;59,7
2015-08-04 08:00;60,15
2015-08-04 08:15;60
2015-08-04 08:30;64
2015-08-04 08:45;65,85
2015-08-04 09:00;70,2
2015-08-04 09:15;72,3
2015-08-04 09:30;75
2015-08-04 09:45;72,95
2015-08-04 10:00;69,75
2015-08-04 10:15;75,5
2015-08-04 10:30;77,65
2015-08-04 10:45;77,75
2015-08-04 11:00;80,05
2015-08-04 11:15;80,7
2015-08-04 11:30;79,2
2015-08-04 11:45;78,75
2015-08-04 12:00;79,35
2015-08-04 12:15;79,1
2015-08-04 12:30;80,7
2015-08-04 12:45;80,75
2015-08-04 13:00;81,3
2015-08-04 13:15;82,25
2015-08-04 13:30;81,95
2015-08-04 13:45;83,1
2015-08-04 14:00;81,5
2015-08-04 14:15;78,9
2015-08-04 14:30;77,25
2015-08-04 14:45;75
2015-08-04 15:00;74,25
2015-08-04 15:15;75,35
2015-08-04 15:30;81,5
2015-08-04 15:45;80,45
2015-08-04 16:00;79,6
2015-08-04 16:15;79,55
2015-08-04 16:30;79,3
2015-08-04 16:45;76
2015-08-04 17:00;75,75
2015-08-04 17:15;75,25
2015-08-04 17:30;75,55
2015-08-04 17:45;74,25
2015-08-04 18:00;74,15
2015-08-04 18:15;73,4
2015-08-04 18:30;74,1
2015-08-04 18:45;76,1
2015-08-04 19:00;74,8
2015-08-04 19:15;76,8
2015-08-04 19:30;76,8
2015-08-04 19:45;75
2015-08-04 20:00;77,35
2015-08-04 20:15;70,9
2015-08-04 20:30;69,9
2015-08-04 20:45;72,6
2015-08-04 21:00;73,55
2015-08-04 21:15;72,9
2015-08-04 21:30;73,7
2015-08-04 21:45;73,2
2015-08-04 22:00;74,5
2015-08-04 22:15;74,75
2015-08-04 22:30;73,05
2015-08-04 22:45;73,35
2015-08-04 23:00;72,05
2015-08-04 23:15;71,3
2015-08-04 23:30;72,3
2015-08-04 23:45;71,6
2015-08-05 00:00;71,85
2015-08-05 00:15;70,95
2015-08-05 00:30;71
2015-08-05 00:45;71,1
2015-08-05 01:00;70,75
2015-08-05 01:15;68,5
2015-08-05 01:30;69,25
2015-08-05 01:45;68,7
2015-08-05 02:00;68,8
2015-08-05 02:15;68,2
2015-08-05 02:30;66,9
2015-08-05 02:45;67,5
2015-08-05 03:00;67,5
2015-08-05 03:15;67,95
2015-08-05 03:30;67,75
2015-08-05 03:45;67,4
2015-08-05 04:00;67,4
2015-08-05 04:15;67,55
2015-08-05 04:30;66,8
2015-08-05 04:45;64,55
2015-08-05 05:00;66,2
2015-08-05 05:15;66,5
2015-08-05 05:30;65,9
2015-08-05 05:45;63,1
2015-08-05 06:00;64,6
2015-08-05 06:15;62,75
2015-08-05 06:30;61,25
2015-08-05 06:45;57,45
2015-08-05 07:00;55,95
2015-08-05 07:15;58
2015-08-05 07:30;57,7
2015-08-05 07:45;59,2
2015-08-05 08:00;56,75
2015-08-05 08:15;59,55
2015-08-05 08:30;63,4
2015-08-05 08:45;64,15
2015-08-05 09:00;68,1
2015-08-05 09:15;73,35
2015-08-05 09:30;77,75
2015-08-05 09:45;78,2
2015-08-05 10:00;79,6
2015-08-05 10:15;79,7
2015-08-05 10:30;80,65
2015-08-05 10:45;83,3
2015-08-05 11:00;83,95
2015-08-05 11:15;83,65
2015-08-05 11:30;84,4
2015-08-05 11:45;83,2
2015-08-05 12:00;82,4
2015-08-05 12:15;81,3
2015-08-05 12:30;81,75
2015-08-05 12:45;81,95
2015-08-05 13:00;81,45
2015-08-05 13:15;82,45
2015-08-05 13:30;80,2
2015-08-05 13:45;81,25
2015-08-05 14:00;80,75
2015-08-05 14:15;76,85
2015-08-05 14:30;77,05
2015-08-05 14:45;75,7
2015-08-05 15:00;75,5
2015-08-05 15:15;75,55
2015-08-05 15:30;77,9
2015-08-05 15:45;74,95
2015-08-05 16:00;71
2015-08-05 16:15;69,4
2015-08-05 16:30;68,85
2015-08-05 16:45;67,15
2015-08-05 17:00;67,05
2015-08-05 17:15;67,7
2015-08-05 17:30;66,1
2015-08-05 17:45;67,35
2015-08-05 18:00;67
2015-08-05 18:15;64,8
2015-08-05 18:30;64,8
2015-08-05 18:45;65,65
2015-08-05 19:00;63,75
2015-08-05 19:15;68,65
2015-08-05 19:30;66,45
2015-08-05 19:45;66,4
2015-08-05 20:00;66,85
2015-08-05 20:15;68,45
2015-08-05 20:30;68,45
2015-08-05 20:45;68,8
2015-08-05 21:00;73,05
2015-08-05 21:15;72,75
2015-08-05 21:30;72,8
2015-08-05 21:45;72,5
2015-08-05 22:00;72,25
2015-08-05 22:15;68,2
2015-08-05 22:30;71,55
2015-08-05 22:45;71,1
2015-08-05 23:00;71,45
2015-08-05 23:15;71,25
2015-08-05 23:30;67,65
2015-08-05 23:45;69,8
2015-08-06 00:00;71
2015-08-06 00:15;70,7
2015-08-06 00:30;70,05
2015-08-06 00:45;69,5
2015-08-06 01:00;66,9
2015-08-06 01:15;68,7
2015-08-06 01:30;69,05
2015-08-06 01:45;68,3
2015-08-06 02:00;68,05
2015-08-06 02:15;65,05
2015-08-06 02:30;66,15
2015-08-06 02:45;66,75
2015-08-06 03:00;65,95
2015-08-06 03:15;66,95
2015-08-06 03:30;64,35
2015-08-06 03:45;66,4
2015-08-06 04:00;66,75
2015-08-06 04:15;65,6
2015-08-06 04:30;65,6
2015-08-06 04:45;64,4
2015-08-06 05:00;66,35
2015-08-06 05:15;66,85
2015-08-06 05:30;66,6
2015-08-06 05:45;62,7
2015-08-06 06:00;64,85
2015-08-06 06:15;64,25
2015-08-06 06:30;63
2015-08-06 06:45;57,5
2015-08-06 07:00;57,7
2015-08-06 07:15;57,7
2015-08-06 07:30;57
2015-08-06 07:45;58,35
2015-08-06 08:00;58,15
2015-08-06 08:15;57
2015-08-06 08:30;60,2
2015-08-06 08:45;62,3
2015-08-06 09:00;61,9
2015-08-06 09:15;63,7
2015-08-06 09:30;68,35
2015-08-06 09:45;67,95
2015-08-06 10:00;69,45
2015-08-06 10:15;68,1
2015-08-06 10:30;68,3
2015-08-06 10:45;65,55
2015-08-06 11:00;70,2
2015-08-06 11:15;72,95
2015-08-06 11:30;71,2
2015-08-06 11:45;70,8
2015-08-06 12:00;71,4
2015-08-06 12:15;70,95
2015-08-06 12:30;70,9
2015-08-06 12:45;72,2
2015-08-06 13:00;71,7
2015-08-06 13:15;71,9
2015-08-06 13:30;72,35
2015-08-06 13:45;73,15
2015-08-06 14:00;72,7
2015-08-06 14:15;72,95
2015-08-06 14:30;74,45
2015-08-06 14:45;73,9
2015-08-06 15:00;74,65
2015-08-06 15:15;74
2015-08-06 15:30;74,35
2015-08-06 15:45;73,5
2015-08-06 16:00;69,55
2015-08-06 16:15;71,4
2015-08-06 16:30;77,85
2015-08-06 16:45;80,35
2015-08-06 17:00;79,75
2015-08-06 17:15;80,2
2015-08-06 17:30;77,4
2015-08-06 17:45;75,95
2015-08-06 18:00;74,05
2015-08-06 18:15;74,3
2015-08-06 18:30;72,8
2015-08-06 18:45;73,05
2015-08-06 19:00;74,95
2015-08-06 19:15;75,35
2015-08-06 19:30;71,8
2015-08-06 19:45;71,95
2015-08-06 20:00;72,55
2015-08-06 20:15;69,6
2015-08-06 20:30;71,8
2015-08-06 20:45;74,8
2015-08-06 21:00;75,25
2015-08-06 21:15;74,4
2015-08-06 21:30;73,3
2015-08-06 21:45;71,9
2015-08-06 22:00;70,7
2015-08-06 22:15;71,4
2015-08-06 22:30;72,35
2015-08-06 22:45;71,05
2015-08-06 23:00;72,15
2015-08-06 23:15;70,85
2015-08-06 23:30;69,8
2015-08-06 23:45;70,4
2015-08-07 00:00;71,7
2015-08-07 00:15;69,55
2015-08-07 00:30;70,15
2015-08-07 00:45;68,35
2015-08-07 01:00;70,45
2015-08-07 01:15;69,45
2015-08-07 01:30;69,4
2015-08-07 01:45;66,25
2015-08-07 02:00;68,25
2015-08-07 02:15;68,4
2015-08-07 02:30;67,75
2015-08-07 02:45;67,5
2015-08-07 03:00;65,3
2015-08-07 03:15;68,6
2015-08-07 03:30;68,65
2015-08-07 03:45;68,75
2015-08-07 04:00;65,75
2015-08-07 04:15;66,85
2015-08-07 04:30;67,4
2015-08-07 04:45;68,45
2015-08-07 05:00;67,25
2015-08-07 05:15;65
2015-08-07 05:30;67,35
2015-08-07 05:45;65,15
2015-08-07 06:00;65,3
2015-08-07 06:15;64,7
2015-08-07 06:30;60,65
2015-08-07 06:45;59,45
2015-08-07 07:00;57,95
2015-08-07 07:15;59,05
2015-08-07 07:30;57,8
2015-08-07 07:45;58,7
2015-08-07 08:00;55,6
2015-08-07 08:15;60,1
2015-08-07 08:30;61,05
2015-08-07 08:45;61,65
2015-08-07 09:00;61,95
2015-08-07 09:15;61,95
2015-08-07 09:30;65,45
2015-08-07 09:45;70,2
2015-08-07 10:00;69,5
2015-08-07 10:15;71,35
2015-08-07 10:30;70,7
2015-08-07 10:45;71,3
2015-08-07 11:00;80
2015-08-07 11:15;79,65
2015-08-07 11:30;83
2015-08-07 11:45;83,1
2015-08-07 12:00;84,2
2015-08-07 12:15;79,7
2015-08-07 12:30;75,6
2015-08-07 12:45;75,5
2015-08-07 13:00;76,15
2015-08-07 13:15;77,9
2015-08-07 13:30;73,15
2015-08-07 13:45;71,45
2015-08-07 14:00;70,3
2015-08-07 14:15;70,45
2015-08-07 14:30;72,3
2015-08-07 14:45;70,2
2015-08-07 15:00;69,25
2015-08-07 15:15;68,3
2015-08-07 15:30;69,7
2015-08-07 15:45;70,3
2015-08-07 16:00;66,75
2015-08-07 16:15;68,55
2015-08-07 16:30;69,55
2015-08-07 16:45;68,1
2015-08-07 17:00;69,1
2015-08-07 17:15;68,85
2015-08-07 17:30;68,9
2015-08-07 17:45;67,75
2015-08-07 18:00;67
2015-08-07 18:15;67,35
2015-08-07 18:30;66,65
2015-08-07 18:45;64,4
2015-08-07 19:00;67,85
2015-08-07 19:15;68,85
2015-08-07 19:30;67,55
2015-08-07 19:45;68,85
2015-08-07 20:00;68,55
2015-08-07 20:15;67,8
2015-08-07 20:30;68,9
2015-08-07 20:45;79,15
2015-08-07 21:00;80,25
2015-08-07 21:15;80,9
2015-08-07 21:30;80,9
2015-08-07 21:45;78
2015-08-07 22:00;76,55
2015-08-07 22:15;70,55
2015-08-07 22:30;70,15
2015-08-07 22:45;71,2
2015-08-07 23:00;72,2
2015-08-07 23:15;68,85
2015-08-07 23:30;70,9
2015-08-07 23:45;70,4
2015-08-08 00:00;72,7
2015-08-08 00:15;71,45
2015-08-08 00:30;70,4
2015-08-08 00:45;68,5
2015-08-08 01:00;69,3
2015-08-08 01:15;69,7
2015-08-08 01:30;68,8
2015-08-08 01:45;68,6
2015-08-08 02:00;66,35
2015-08-08 02:15;67,05
2015-08-08 02:30;67,05
2015-08-08 02:45;67,1
2015-08-08 03:00;67,4
2015-08-08 03:15;65,9
2015-08-08 03:30;67,55
2015-08-08 03:45;67,8
2015-08-08 04:00;66,35
2015-08-08 04:15;66,6
2015-08-08 04:30;64,9
2015-08-08 04:45;67
2015-08-08 05:00;66,95
2015-08-08 05:15;65,6
2015-08-08 05:30;65,25
2015-08-08 05:45;63,95
2015-08-08 06:00;64,55
2015-08-08 06:15;64,3
2015-08-08 06:30;64,05
2015-08-08 06:45;60,75
2015-08-08 07:00;59,15
2015-08-08 07:15;58,45
2015-08-08 07:30;58,9
2015-08-08 07:45;58,75
2015-08-08 08:00;59,9
2015-08-08 08:15;57,25
2015-08-08 08:30;61,1
2015-08-08 08:45;62,4
2015-08-08 09:00;62,7
2015-08-08 09:15;63,7
2015-08-08 09:30;62,7
2015-08-08 09:45;62,4
2015-08-08 10:00;66,65
2015-08-08 10:15;69,75
2015-08-08 10:30;67,6
2015-08-08 10:45;62,15
2015-08-08 11:00;63,15
2015-08-08 11:15;63,25
2015-08-08 11:30;63,15
2015-08-08 11:45;64,75
2015-08-08 12:00;64,85
2015-08-08 12:15;64,45
2015-08-08 12:30;64,35
2015-08-08 12:45;65,15
2015-08-08 13:00;65,65
2015-08-08 13:15;64,95
2015-08-08 13:30;64,65
2015-08-08 13:45;65,1
2015-08-08 14:00;63,7
2015-08-08 14:15;64,2
2015-08-08 14:30;60,7
2015-08-08 14:45;58,9
2015-08-08 15:00;60,4
2015-08-08 15:15;60
2015-08-08 15:30;60,5
2015-08-08 15:45;60
2015-08-08 16:00;60,4
2015-08-08 16:15;60,95
2015-08-08 16:30;60,45
2015-08-08 16:45;58,8
2015-08-08 17:00;59,95
2015-08-08 17:15;61,3
2015-08-08 17:30;61,95
2015-08-08 17:45;62,15
2015-08-08 18:00;62,85
2015-08-08 18:15;61,35
2015-08-08 18:30;62,15
2015-08-08 18:45;58,9
2015-08-08 19:00;61,3
2015-08-08 19:15;62,8
2015-08-08 19:30;62,65
2015-08-08 19:45;62,15
2015-08-08 20:00;61,4
2015-08-08 20:15;63,05
2015-08-08 20:30;69,15
2015-08-08 20:45;74,55
2015-08-08 21:00;75,15
2015-08-08 21:15;70,05
2015-08-08 21:30;70,65
2015-08-08 21:45;69,4
2015-08-08 22:00;67,45
2015-08-08 22:15;68,45
2015-08-08 22:30;68,3
2015-08-08 22:45;68,8
2015-08-08 23:00;68,65
2015-08-08 23:15;68,55
2015-08-08 23:30;69,5
2015-08-08 23:45;67,95
2015-08-09 00:00;69,2
2015-08-09 00:15;68,35
2015-08-09 00:30;66,6
2015-08-09 00:45;67,35
2015-08-09 01:00;68,3
2015-08-09 01:15;68,1
2015-08-09 01:30;67,1
2015-08-09 01:45;67,7
2015-08-09 02:00;67,4
2015-08-09 02:15;67,4
2015-08-09 02:30;68,15
2015-08-09 02:45;65,2
2015-08-09 03:00;67,2
2015-08-09 03:15;67,5
2015-08-09 03:30;66,65
2015-08-09 03:45;66,8
2015-08-09 04:00;66,55
2015-08-09 04:15;66,9
2015-08-09 04:30;66,3
2015-08-09 04:45;65,15
2015-08-09 05:00;67,2
2015-08-09 05:15;65,9
2015-08-09 05:30;66,5
2015-08-09 05:45;62,7
2015-08-09 06:00;64,85
2015-08-09 06:15;67,85
2015-08-09 06:30;69,95
2015-08-09 06:45;64,3
2015-08-09 07:00;59,9
2015-08-09 07:15;58,3
2015-08-09 07:30;59,1
2015-08-09 07:45;58,1
2015-08-09 08:00;55,85
2015-08-09 08:15;60
2015-08-09 08:30;59,45
2015-08-09 08:45;60,05
2015-08-09 09:00;59,05
2015-08-09 09:15;59,1
2015-08-09 09:30;58,4
2015-08-09 09:45;60,1
2015-08-09 10:00;61,35
2015-08-09 10:15;62,95
2015-08-09 10:30;61,65
2015-08-09 10:45;62,45
2015-08-09 11:00;62,1
2015-08-09 11:15;64
2015-08-09 11:30;62,7
2015-08-09 11:45;62,5
2015-08-09 12:00;59,95
2015-08-09 12:15;63,7
2015-08-09 12:30;63,3
2015-08-09 12:45;63,15
2015-08-09 13:00;63,4
2015-08-09 13:15;62,5
2015-08-09 13:30;63
2015-08-09 13:45;61,55
2015-08-09 14:00;62,15
2015-08-09 14:15;62
2015-08-09 14:30;62,3
2015-08-09 14:45;62,6
2015-08-09 15:00;60,1
2015-08-09 15:15;61,75
2015-08-09 15:30;62,4
2015-08-09 15:45;61,65
2015-08-09 16:00;63,2
2015-08-09 16:15;62,6
2015-08-09 16:30;62,2
2015-08-09 16:45;62,95
2015-08-09 17:00;63,9
2015-08-09 17:15;64,05
2015-08-09 17:30;64,15
2015-08-09 17:45;63,65
2015-08-09 18:00;63,3
2015-08-09 18:15;61,85
2015-08-09 18:30;63,15
2015-08-09 18:45;61,8
2015-08-09 19:00;61,3
2015-08-09 19:15;60,8
2015-08-09 19:30;62,6
2015-08-09 19:45;64,3
2015-08-09 20:00;61,65
2015-08-09 20:15;63,65
2015-08-09 20:30;66,3
2015-08-09 20:45;69,8
2015-08-09 21:00;69,7
2015-08-09 21:15;68,35
2015-08-09 21:30;73,95
2015-08-09 21:45;74,65
2015-08-09 22:00;75,65
2015-08-09 22:15;70,4
2015-08-09 22:30;66,25
2015-08-09 22:45;67,85
2015-08-09 23:00;67,65
2015-08-09 23:15;67,15
2015-08-09 23:30;67,4
2015-08-09 23:45;64,85

